Regional Weather Roundup
Issued by NWS Mobile, AL

Home | Current Version | Previous Version | Text Only | Print | Product List | Glossary On
Versions: 1 2 3 4 5 6 7 8 9 10 11 12 13 14 15 16 17 18 19 20 21 22 23 24 25 26 27 28 29 30 31 32 33 34 35 36 37 38 39 40 41 42 43 44 45 46 47 48 49 50
483
ASUS44 KMOB 230412
RWRMOB
REGIONAL WEATHER ROUNDUP
NATIONAL WEATHER SERVICE MOBILE AL
1100 PM CDT SUN APR 22 2018

NOTE: "FAIR" INDICATES FEW OR NO CLOUDS BELOW 12,000 FEET WITH NO
      SIGNIFICANT WEATHER AND/OR OBSTRUCTIONS TO VISIBILITY.

  * THESE STATIONS ARE PART OF THE UNIVERSITY OF SOUTH ALABAMA
    MESONET AND ARE NOT UNDER NWS OR FAA QUALITY CONTROL.

ALZ061>064-230500-
COASTAL ALABAMA

CITY           SKY/WX    TMP DP  RH WIND       PRES   REMARKS
MOBILE REG APT FAIR      64  62  93 CALM      29.93R
BROOKLEY FIELD FAIR      66  65  96 N7        29.93S FOG
USA CAMPUS*    NOT AVBL
DOG RIVER*     NOT AVBL


CITY           SKY/WX    TMP DP  RH WIND       PRES   REMARKS
GULF SHORES    FAIR      68  68 100 SW8       29.92S

$$

ALZ051>060-230500-
INTERIOR SOUTHWEST AND SOUTH CENTRAL ALABAMA

CITY           SKY/WX    TMP DP  RH WIND       PRES   REMARKS
GREENVILLE     CLOUDY    64  60  87 SW3       29.92S
EVERGREEN      FAIR      62  60  93 CALM      29.93S FOG
ATMORE*          N/A    N/A N/A N/A CALM      30.61S
ANDALUSIA/OPP  CLOUDY    70  66  87 W6        29.94R
ANDALUSIA*     NOT AVBL
FLORALA APT    MOCLDY    68  66  93 S7        29.95S
FLORALA*       NOT AVBL

$$

FLZ001>006-230500-
WESTERN FLORIDA PANHANDLE

CITY           SKY/WX    TMP DP  RH WIND       PRES   REMARKS
PENSACOLA      FAIR      71  67  87 SW9       29.92S
NAS PENSACOLA  FAIR      70  67  90 SW8       29.92R
MILTON         MOCLDY    68  68 100 SW5       29.93S
WHTNG S FIELD  FAIR      69  69 100 S3        29.93S


CITY           SKY/WX    TMP DP  RH WIND       PRES   REMARKS
JAY*           NOT AVBL
DUKE FIELD     FAIR      68  68  99 S10       29.92F
CRESTVIEW      MOCLDY    67  66  97 CALM      29.94S
VALPARAISO     CLOUDY    70  69  97 SW6       29.92S
DESTIN         CLOUDY    73  68  84 VRB3      29.93S

$$

MSZ076-079-230500-
INTERIOR SOUTHEAST MISSISSIPPI

CITY           SKY/WX    TMP DP  RH WIND       PRES   REMARKS
LEAKESVILLE*   NOT AVBL
AGRICOLA*        N/A     63  63 100 CALM      29.93

$$

MARINE OBSERVATIONS

STATION/POSITION TIME  TEMP    WIND        PRES    WAVE
                       AIR SEA DIR/SP/G            HT/PER
                 (UTC) (F)     (DEG/KT/KT) (MB)    (FT/S)
PETIT BOIS ISLND 0342   70     240/  4/  4 1013.8R
GRAND BAY        0245   70        CALM     1013.0S
KATRINA CUT      0330   70     210/  9     1013.5R
CEDAR POINT      0330   70     210/  9       N/A
E DAUPHIN ISLAND 0400   70     220/  5/  7 1013.1R
MIDDLE BAY LIGHT 0330   69     210/  7     1013.2R
USCG MOBILE BAY  0342   67 68  360/  4/  6 1013.4R
STATE DOCKS      0342   67 65              1013.3R
MEAHER PARK      0330   68        CALM     1013.2S
WEEKS BAY        0245   70                 1013.0R
FORT MORGAN      0342   70     230/ 12/ 13   N/A
12 S ORANGE BCH  0350   70     220/ 10/ 14 1013.2R   4/ 6
PENSACOLA BAY    0342   71 71  230/  4/  7 1013.3R
64 S DAUPHIN ISL 0350      73  240/ 14/ 17 1014.0F   4/ 6
67 S FORT MORGAN 0330   70                 1013.9R

$$

SELECTED LOCATIONS ACROSS THE REGION

CITY           SKY/WX    TMP DP  RH WIND       PRES   REMARKS
NEW ORLEANS    FAIR      64  57  78 NW13G20   29.97R
GULFPORT       FAIR      65  62  90 N3        29.92R
PASCAGOULA AP  FAIR      64  62  93 N3        29.92R
PASCAGOULA*    NOT AVBL
HATTIESBURG    FAIR      61  61 100 CALM      29.94R
LAUREL         FAIR      60  60 100 VRB5      29.94S
MERIDIAN       FAIR      60  57  89 CALM      29.91R
JACKSON        MOCLDY    61  55  81 W10       29.92R
MONTGOMERY     CLOUDY    65  63  93 SW6       29.93R
TROY           RAIN      64  62  93 W5        29.96R FOG
ASHFORD*       NOT AVBL
DOTHAN         LGT RAIN  68  66  93 S8        29.98S FOG
PANAMA CITY    CLOUDY    70  68  93 S5        29.94S

$$





USA.gov is the U.S. government's official web portal to all federal, state and local government web resources and services.